This demonstration page uses our WeatherBlox Daily Observations layout. Learn more.

Left ArrowRight Arrow

39.01783, -85.05884

Hourly Observations for May 29, 2018

Temp ( °F °C ) Dew Point ( °F °C ) Humidity (%) Winds ( mph kmh ) Pressure ( in mb ) Visibility ( mi km ) Precip ( " mm )
12:52 am 00:52 Mostly Cloudy 71 21.7 64 17.8 79 79 ESE 3 6 29.92 1013 10 16 0.00 0.00
1:52 am 01:52 Cloudy 72 22.2 65 18.3 79 79 Calm 29.91 1013 10 16 0.00 0.00
2:52 am 02:52 Cloudy 72 22.2 64 17.8 76 76 NE 7 11 29.91 1013 10 16 0.00 0.00
3:52 am 03:52 Cloudy 73 22.8 64 17.8 74 74 NE 7 11 29.90 1012 10 16 0.00 0.00
4:52 am 04:52 Mostly Cloudy 72 22.2 64 17.8 76 76 NE 8 13 29.89 1012 10 16 0.00 0.00
5:52 am 05:52 Partly Cloudy 72 22.2 65 18.3 79 79 ENE 6 9 29.89 1012 10 16 0.00 0.00
6:52 am 06:52 Mostly Cloudy 71 21.7 65 18.3 81 81 E 6 9 29.91 1013 10 16 0.00 0.00
7:52 am 07:52 Mostly Cloudy 73 22.8 65 18.3 76 76 ENE 10 17 29.91 1013 10 16 0.00 0.00
8:52 am 08:52 Cloudy 73 22.8 65 18.3 76 76 E 12 19 29.92 1013 10 16 0.00 0.00
9:52 am 09:52 Mostly Cloudy 74 23.3 65 18.3 74 74 E 18 30 29.93 1014 10 16 0.00 0.00
10:52 am 10:52 Mostly Cloudy 76 24.4 66 18.9 72 72 E 17 28 29.93 1013 10 16 0.00 0.00
11:52 am 11:52 Mostly Cloudy 80 26.7 65 18.3 60 60 E 18 30 29.91 1013 10 16 0.00 0.00
12:52 pm 12:52 Mostly Cloudy 83 28.3 65 18.3 55 55 E 20 31 29.89 1012 10 16 0.00 0.00
1:52 pm 13:52 Mostly Cloudy 86 30 67 19.4 53 53 E 21 33 29.87 1011 10 16 0.00 0.00
2:52 pm 14:52 Mostly Cloudy 86 30 67 19.4 53 53 E 21 33 29.85 1011 10 16 0.00 0.00
3:52 pm 15:52 Mostly Cloudy 85 29.4 68 20 57 57 SE 14 22 29.83 1010 10 16 0.00 0.00
4:52 pm 16:52 Mostly Cloudy 86 30 68 20 55 55 ESE 15 24 29.82 1010 10 16 0.00 0.00
5:52 pm 17:52 Mostly Cloudy 86 30 67 19.4 53 53 SE 15 24 29.80 1009 10 16 0.00 0.00
6:52 pm 18:52 Cloudy 84 28.9 68 20 59 59 ESE 12 19 29.80 1009 10 16 0.00 0.00
7:52 pm 19:52 Cloudy with Light Rain 81 27.2 69 20.6 67 67 ESE 9 15 29.80 1009 10 16 0.00 0.03
8:52 pm 20:52 Cloudy with Light Rain 79 26.1 69 20.6 72 72 E 10 17 29.81 1009 10 16 0.00 0.03
9:52 pm 21:52 Cloudy with Light Rain 79 26.1 70 21.1 74 74 E 8 13 29.81 1009 10 16 0.00 0.03
10:52 pm 22:52 Mostly Cloudy 78 25.6 69 20.6 74 74 E 12 19 29.79 1009 10 16 0.00 0.03
11:52 pm 23:52 Mostly Cloudy 78 25.6 69 20.6 74 74 ESE 13 20 29.78 1008 10 16 0.00 0.00

Powered by AerisWeather